Change the Weather History Date:

Wednesday, May 14, 2014

  Actual Average Record
Temperature  
Mean Temperature 82 °F -  
Max Temperature 93 °F 86 °F 93 °F (2014)
Min Temperature 72 °F 63 °F 55 °F (2013)
Cooling Degree Days 16    
Growing Degree Days 32 (Base 50)    
Moisture  
Dew Point 71 °F    
Average Humidity 76    
Maximum Humidity 93    
Minimum Humidity 47    
Precipitation  
Precipitation 0.01 in - - ()
Sea Level Pressure  
Sea Level Pressure 30.01 in    
Wind  
Wind Speed 11 mph (SE)    
Max Wind Speed 29 mph    
Max Gust Speed 38 mph    
Visibility 9 miles    
Events Rain , Thunderstorm    
Averages and records for this station are not official NWS values.
T = Trace of Precipitation, MM = Missing Value Source: NWS Daily Summary

Daily Weather History Graph

Daily Weather History Graph

Search for Another Location

Airport or City:

Trip Planner

Search our weather history database for the weather conditions in past years. The results will help you decide how hot, cold, wet, or windy it might be!

Date:

Astronomy

May. 14, 2014 Rise Set
Actual Time 6:40 AM EDT 8:08 PM EDT
Civil Twilight 6:15 AM EDT 8:33 PM EDT
Nautical Twilight 5:45 AM EDT 9:03 PM EDT
Astronomical Twilight 5:14 AM EDT 9:34 PM EDT
Moon 8:14 PM EDT (5/14) 6:34 AM EDT (5/14)
Length of Visible Light 14h 17m
Length of Day
13h 27m
Full, 100% of the Moon is Illuminated
May 14
Full
May 14
Full
May 21
Last Quarter
May 28
New
Jun 5
First Quarter

Hourly Weather History & Observations

Time (EDT) Temp. Heat Index Dew Point Humidity Pressure Visibility Wind Dir Wind Speed Gust Speed Precip Events Conditions
12:53 AM 75.0 °F - 72.0 °F 90% 30.05 in 10.0 mi ENE 8.1 mph - N/A   Clear
1:53 AM 75.0 °F - 72.0 °F 90% 30.04 in 10.0 mi ENE 8.1 mph - N/A   Clear
2:53 AM 73.0 °F - 71.1 °F 93% 30.03 in 10.0 mi ENE 5.8 mph - N/A   Clear
3:53 AM 73.9 °F - 72.0 °F 93% 30.01 in 10.0 mi East 5.8 mph - N/A   Clear
5:53 AM 72.0 °F - 70.0 °F 93% 30.02 in 8.0 mi ENE 4.6 mph - N/A   Clear
6:53 AM 72.0 °F - 70.0 °F 93% 30.04 in 6.0 mi East 6.9 mph - N/A   Clear
8:53 AM 80.1 °F 83.8 °F 72.0 °F 76% 30.06 in 10.0 mi ESE 11.5 mph - N/A   Clear
9:53 AM 84.0 °F 89.0 °F 71.1 °F 65% 30.05 in 10.0 mi SE 16.1 mph 21.9 mph N/A   Scattered Clouds
11:53 AM 89.1 °F 94.1 °F 70.0 °F 53% 30.05 in 10.0 mi SE 20.7 mph 26.5 mph N/A   Mostly Cloudy
12:53 PM 90.0 °F 94.5 °F 69.1 °F 50% 30.02 in 10.0 mi SE 13.8 mph 23.0 mph N/A   Scattered Clouds
1:53 PM 90.0 °F 95.4 °F 70.0 °F 52% 30.00 in 10.0 mi SSE 18.4 mph - N/A   Scattered Clouds
2:38 PM 89.1 °F 93.7 °F 69.1 °F 52% 29.98 in 10.0 mi South 13.8 mph - N/A Thunderstorm Thunderstorm
2:53 PM 91.9 °F 96.9 °F 69.1 °F 47% 29.97 in 10.0 mi South 8.1 mph - N/A   Partly Cloudy
3:53 PM 90.0 °F 96.4 °F 71.1 °F 54% 29.95 in 10.0 mi South 19.6 mph 23.0 mph N/A   Scattered Clouds
4:15 PM 86.0 °F 92.2 °F 72.0 °F 63% 29.97 in 9.0 mi SSE 26.5 mph 38.0 mph 0.00 in Rain , Thunderstorm Light Rain
4:19 PM 79.0 °F - 72.0 °F 79% 29.98 in 1.8 mi SSE 28.8 mph 38.0 mph 0.09 in Rain , Thunderstorm Heavy Rain
4:30 PM 77.0 °F - 73.0 °F 88% 29.97 in 1.2 mi South 15.0 mph 29.9 mph 0.22 in Rain , Thunderstorm Heavy Thunderstorms and Rain
4:35 PM 77.0 °F - 73.0 °F 88% 29.96 in 3.0 mi South 11.5 mph - 0.22 in Rain , Thunderstorm Light Thunderstorms and Rain
5:53 PM 82.9 °F 87.5 °F 71.1 °F 67% 29.96 in 10.0 mi SSE 12.7 mph - N/A   Overcast
6:53 PM 78.1 °F - 70.0 °F 76% 29.98 in 10.0 mi SSE 12.7 mph - N/A   Mostly Cloudy
7:53 PM 75.9 °F - 71.1 °F 85% 29.99 in 10.0 mi SSE 8.1 mph - 0.01 in   Scattered Clouds
8:53 PM 75.9 °F - 72.0 °F 87% 30.01 in 10.0 mi SSE 4.6 mph - N/A   Overcast
9:53 PM 75.9 °F - 72.0 °F 87% 30.03 in 10.0 mi SE 3.5 mph - N/A   Overcast
10:53 PM 75.9 °F - 73.0 °F 91% 30.03 in 10.0 mi ESE 3.5 mph - N/A   Scattered Clouds
11:53 PM 77.0 °F - 71.1 °F 82% 30.02 in 10.0 mi SE 9.2 mph - N/A   Partly Cloudy